Zurück zum Katalog

STARLINK-33937

AktivKommunikationVLEO
NORAD 63704·PAYLOAD·🇺🇸 United States

Gestartet Apr 28, 2025 von Vandenberg Space Force Base

Loading…

Nächste Überflüge (nächste 24 Stunden)

TLE

AktuellSource: CelesTrak SupGP

Epoche: Sep 14, 2026, 14:42 UTC

1 63704C 25087H   26257.61298611 -.00036986  00000+0 -10930-2 0  2573
2 63704  53.1603  61.2453 0000786  85.2344 346.5670 15.34402535    12

Verfolge STARLINK-33937 in Echtzeit mit AllMySat

Download on the App Store